Location: R�serve Fauniques des Laurentides
(47.3100°N, 71.1900°W)
Time: 04:23:58
(UTC-04:00)

Cosmos 1674 - Visible Passes

Search period start: 29 September 2016 00:00
Search period end: 09 October 2016 00:00
Orbit: 501 x 524 km, 82.5° (Epoch: 28 September)

Date Brightness Start Highest point End Pass type
(mag) Time Alt. Az. Time Alt. Az. Time Alt. Az.
29 Sep 3.3 19:23:46 10° N 19:27:23 35° ENE 19:30:58 10° SE visible
29 Sep 5.4 20:59:59 10° NW 21:02:47 19° W 21:05:34 10° SW visible
30 Sep 3.6 19:07:53 10° NNE 19:11:19 29° ENE 19:14:44 10° SE visible
30 Sep 5.1 20:43:44 10° NW 20:46:50 23° W 20:49:55 10° SW visible
01 Oct 3.9 18:52:01 10° NNE 18:55:14 24° ENE 18:58:26 10° SE visible
01 Oct 4.8 20:27:31 10° NNW 20:30:53 28° W 20:34:13 10° SSW visible
02 Oct 4.4 20:11:22 10° NNW 20:14:55 34° W 20:18:26 10° SSW visible
03 Oct 4.0 19:55:14 10° NNW 19:58:56 42° W 20:02:36 10° SSW visible
04 Oct 3.6 19:39:08 10° NNW 19:42:57 53° W 19:46:43 10° S visible
05 Oct 3.1 19:23:03 10° NNW 19:26:56 67° W 19:30:46 10° S visible
06 Oct 2.8 19:07:00 10° N 19:10:55 83° W 19:14:47 10° S visible
07 Oct 2.7 18:50:58 10° N 18:54:53 79° E 18:58:45 10° SSE visible
08 Oct 6.3 20:12:43 10° WNW 20:13:54 11° W 20:15:06 10° W visible
